Time,TemperatureF,DewpointF,PressureIn,WindDirection,WindDirectionDegrees,WindSpeedMPH,WindSpeedGustMPH,Humidity,HourlyPrecipIn,Conditions,Clouds,dailyrainin,SoftwareType,DateUTC
2013-08-20 00:02:00,70.8,66.7,30.00,ESE,115,0.0,0.0,87,0.00,CLR,,0.00,WeatherDisplay:10.37,2013-08-20 05:02:00,
2013-08-20 00:07:00,70.7,66.3,30.00,ESE,115,0.0,0.0,86,0.00,CLR,,0.00,WeatherDisplay:10.37,2013-08-20 05:07:00,
2013-08-20 00:12:00,70.7,66.6,30.00,ESE,115,0.0,0.0,87,0.00,CLR,,0.00,WeatherDisplay:10.37,2013-08-20 05:12:00,
2013-08-20 00:17:00,70.6,66.5,30.00,ESE,115,0.0,0.0,87,0.00,CLR,,0.00,WeatherDisplay:10.37,2013-08-20 05:17:00,
2013-08-20 00:22:00,70.5,66.4,30.00,ESE,115,0.0,0.0,87,0.00,CLR,,0.00,WeatherDisplay:10.37,2013-08-20 05:22:00,
2013-08-20 00:27:00,70.3,66.2,30.00,ESE,115,0.0,0.0,87,0.00,CLR,,0.00,WeatherDisplay:10.37,2013-08-20 05:27:00,
2013-08-20 00:32:00,70.1,66.4,30.00,ESE,115,0.0,0.0,88,0.00,CLR,,0.00,WeatherDisplay:10.37,2013-08-20 05:32:00,
2013-08-20 00:37:00,70.0,66.3,30.00,ESE,115,0.0,0.0,88,0.00,CLR,,0.00,WeatherDisplay:10.37,2013-08-20 05:37:00,
2013-08-20 00:42:00,69.8,66.1,30.00,ESE,115,0.0,0.0,88,0.00,CLR,,0.00,WeatherDisplay:10.37,2013-08-20 05:42:00,
2013-08-20 00:47:00,69.7,66.3,30.00,ESE,115,0.0,0.0,89,0.00,CLR,,0.00,WeatherDisplay:10.37,2013-08-20 05:47:00,
2013-08-20 00:52:00,69.6,66.2,30.00,ESE,115,0.0,0.0,89,0.00,CLR,,0.00,WeatherDisplay:10.37,2013-08-20 05:52:00,
2013-08-20 00:57:00,69.4,66.3,30.00,ESE,115,0.0,0.0,90,0.00,CLR,,0.00,WeatherDisplay:10.37,2013-08-20 05:57:00,
2013-08-20 01:02:00,69.4,66.3,30.00,ESE,115,0.0,0.0,90,0.00,CLR,,0.00,WeatherDisplay:10.37,2013-08-20 06:02:00,
2013-08-20 01:07:00,69.2,66.1,30.00,ESE,115,0.0,0.0,90,0.00,CLR,,0.00,WeatherDisplay:10.37,2013-08-20 06:07:00,
2013-08-20 01:12:00,69.1,66.0,30.00,ESE,115,0.0,0.0,90,0.00,CLR,,0.00,WeatherDisplay:10.37,2013-08-20 06:12:00,
2013-08-20 01:17:00,69.0,65.9,30.00,ESE,115,0.0,0.0,90,0.00,CLR,,0.00,WeatherDisplay:10.37,2013-08-20 06:17:00,
2013-08-20 01:22:00,69.0,66.3,30.00,ESE,115,0.0,0.0,91,0.00,CLR,,0.00,WeatherDisplay:10.37,2013-08-20 06:22:00,
2013-08-20 01:27:00,68.9,66.2,30.00,ESE,115,0.0,0.0,91,0.00,CLR,,0.00,WeatherDisplay:10.37,2013-08-20 06:27:00,
2013-08-20 01:32:00,68.8,66.1,30.00,ESE,115,0.0,0.0,91,0.00,CLR,,0.00,WeatherDisplay:10.37,2013-08-20 06:32:00,
2013-08-20 01:37:00,68.6,65.9,30.00,ESE,115,0.0,0.0,91,0.00,CLR,,0.00,WeatherDisplay:10.37,2013-08-20 06:37:00,
2013-08-20 01:42:00,68.5,65.8,30.00,ESE,115,0.0,0.0,91,0.00,CLR,,0.00,WeatherDisplay:10.37,2013-08-20 06:42:00,
2013-08-20 01:47:00,68.3,65.6,30.00,ESE,115,0.0,0.0,91,0.00,CLR,,0.00,WeatherDisplay:10.37,2013-08-20 06:47:00,
2013-08-20 01:52:00,68.1,65.7,30.00,ESE,115,0.0,0.0,92,0.00,CLR,,0.00,WeatherDisplay:10.37,2013-08-20 06:52:00,
2013-08-20 01:57:00,68.1,65.7,30.00,ESE,115,0.0,0.0,92,0.00,CLR,,0.00,WeatherDisplay:10.37,2013-08-20 06:57:00,
2013-08-20 02:02:00,68.0,65.6,30.00,ESE,115,0.0,0.0,92,0.00,CLR,,0.00,WeatherDisplay:10.37,2013-08-20 07:02:00,
2013-08-20 02:07:00,67.9,65.8,30.00,ESE,115,0.0,0.0,93,0.00,CLR,,0.00,WeatherDisplay:10.37,2013-08-20 07:07:00,
2013-08-20 02:12:00,67.8,65.4,30.00,ESE,115,0.0,0.0,92,0.00,CLR,,0.00,WeatherDisplay:10.37,2013-08-20 07:12:00,
2013-08-20 02:17:00,67.7,65.6,30.00,ESE,115,0.0,0.0,93,0.00,CLR,,0.00,WeatherDisplay:10.37,2013-08-20 07:17:00,
2013-08-20 02:22:00,67.7,65.6,30.00,ESE,115,0.0,0.0,93,0.00,CLR,,0.00,WeatherDisplay:10.37,2013-08-20 07:22:00,
2013-08-20 02:27:00,67.7,65.6,29.99,ESE,115,0.0,0.0,93,0.00,CLR,,0.00,WeatherDisplay:10.37,2013-08-20 07:27:00,
2013-08-20 02:32:00,67.6,65.5,29.99,ESE,115,0.0,0.0,93,0.00,CLR,,0.00,WeatherDisplay:10.37,2013-08-20 07:32:00,
2013-08-20 02:37:00,67.7,65.6,29.99,ESE,115,0.0,0.0,93,0.00,CLR,,0.00,WeatherDisplay:10.37,2013-08-20 07:37:00,
2013-08-20 02:42:00,67.7,65.6,29.99,ESE,115,0.0,0.0,93,0.00,CLR,,0.00,WeatherDisplay:10.37,2013-08-20 07:42:00,
2013-08-20 02:47:00,67.7,65.6,29.99,ESE,115,0.0,0.0,93,0.00,CLR,,0.00,WeatherDisplay:10.37,2013-08-20 07:47:00,
2013-08-20 02:52:00,67.7,65.6,29.99,ESE,115,0.0,0.0,93,0.00,CLR,,0.00,WeatherDisplay:10.37,2013-08-20 07:52:00,
2013-08-20 02:57:00,67.7,65.6,29.99,ESE,115,0.0,0.0,93,0.00,CLR,,0.00,WeatherDisplay:10.37,2013-08-20 07:57:00,
2013-08-20 03:02:00,67.9,65.8,29.98,ESE,115,0.0,0.0,93,0.00,CLR,,0.00,WeatherDisplay:10.37,2013-08-20 08:02:00,
2013-08-20 03:07:00,68.1,65.7,29.98,ESE,115,0.0,0.0,92,0.00,CLR,,0.00,WeatherDisplay:10.37,2013-08-20 08:07:00,
2013-08-20 03:12:00,68.3,65.9,29.98,ESE,115,0.0,0.0,92,0.00,CLR,,0.00,WeatherDisplay:10.37,2013-08-20 08:12:00,
2013-08-20 03:17:00,68.4,66.0,29.98,SSE,152,0.0,0.0,92,0.00,CLR,,0.00,WeatherDisplay:10.37,2013-08-20 08:17:00,
2013-08-20 03:22:00,68.6,65.9,29.98,SSE,152,0.0,0.0,91,0.00,CLR,,0.00,WeatherDisplay:10.37,2013-08-20 08:22:00,
2013-08-20 03:27:00,68.7,66.0,29.98,NNE,15,0.1,1.2,91,0.00,CLR,,0.00,WeatherDisplay:10.37,2013-08-20 08:27:00,
2013-08-20 03:32:00,68.8,66.1,29.98,NNE,15,0.0,0.0,91,0.00,CLR,,0.00,WeatherDisplay:10.37,2013-08-20 08:32:00,
2013-08-20 03:37:00,68.8,66.1,29.98,NNE,15,0.0,0.0,91,0.00,CLR,,0.00,WeatherDisplay:10.37,2013-08-20 08:37:00,
2013-08-20 03:42:00,68.7,66.0,29.98,NNE,15,0.0,0.0,91,0.00,CLR,,0.00,WeatherDisplay:10.37,2013-08-20 08:42:00,
2013-08-20 03:47:00,68.5,65.8,29.98,NNE,15,0.0,0.0,91,0.00,CLR,,0.00,WeatherDisplay:10.37,2013-08-20 08:47:00,
2013-08-20 03:52:00,68.4,65.7,29.98,NNE,15,0.0,0.0,91,0.00,CLR,,0.00,WeatherDisplay:10.37,2013-08-20 08:52:00,
2013-08-20 03:57:00,68.2,65.5,29.98,NNE,15,0.0,0.0,91,0.00,CLR,,0.00,WeatherDisplay:10.37,2013-08-20 08:57:00,
2013-08-20 04:02:00,68.1,65.4,29.98,NNE,15,0.0,0.0,91,0.00,CLR,,0.00,WeatherDisplay:10.37,2013-08-20 09:02:00,
2013-08-20 04:07:00,68.0,65.6,29.98,NNE,14,0.0,0.0,92,0.00,CLR,,0.00,WeatherDisplay:10.37,2013-08-20 09:07:00,
2013-08-20 04:12:00,68.0,65.6,29.98,NNE,15,0.0,0.0,92,0.00,CLR,,0.00,WeatherDisplay:10.37,2013-08-20 09:12:00,
2013-08-20 04:17:00,67.9,65.5,29.98,NNE,14,0.0,0.0,92,0.00,CLR,,0.00,WeatherDisplay:10.37,2013-08-20 09:17:00,
2013-08-20 04:22:00,67.9,65.5,29.98,NNE,15,0.0,0.0,92,0.00,CLR,,0.00,WeatherDisplay:10.37,2013-08-20 09:22:00,
2013-08-20 04:27:00,67.9,65.8,29.98,NNE,15,0.0,0.0,93,0.00,CLR,,0.00,WeatherDisplay:10.37,2013-08-20 09:27:00,
2013-08-20 04:32:00,68.0,65.6,29.98,NNE,15,0.0,0.0,92,0.00,CLR,,0.00,WeatherDisplay:10.37,2013-08-20 09:32:00,
2013-08-20 04:37:00,67.9,65.5,29.98,NNE,14,0.0,0.0,92,0.00,CLR,,0.00,WeatherDisplay:10.37,2013-08-20 09:37:00,
2013-08-20 04:42:00,67.8,65.4,29.98,NNE,15,0.0,0.0,92,0.00,CLR,,0.00,WeatherDisplay:10.37,2013-08-20 09:42:00,
2013-08-20 04:47:00,67.8,65.7,29.98,NNE,15,0.0,0.0,93,0.00,CLR,,0.00,WeatherDisplay:10.37,2013-08-20 09:47:00,
2013-08-20 04:52:00,68.0,65.9,29.98,NNE,15,0.0,0.0,93,0.00,CLR,,0.00,WeatherDisplay:10.37,2013-08-20 09:52:00,
2013-08-20 04:57:00,68.0,65.9,29.98,NNE,15,0.0,0.0,93,0.00,CLR,,0.00,WeatherDisplay:10.37,2013-08-20 09:57:00,
2013-08-20 05:02:00,68.0,65.6,29.98,NNE,15,0.0,0.0,92,0.00,CLR,,0.00,WeatherDisplay:10.37,2013-08-20 10:02:00,
2013-08-20 05:07:00,67.8,65.4,29.98,NNE,15,0.0,0.0,92,0.00,CLR,,0.00,WeatherDisplay:10.37,2013-08-20 10:07:00,
2013-08-20 05:13:00,67.8,65.7,29.98,North,7,0.0,0.0,93,0.00,CLR,,0.00,WeatherDisplay:10.37,2013-08-20 10:13:00,
2013-08-20 05:18:00,67.8,65.7,29.98,North,7,0.0,0.0,93,0.00,CLR,,0.00,WeatherDisplay:10.37,2013-08-20 10:18:00,
2013-08-20 05:23:00,67.8,65.7,29.98,North,7,0.0,0.0,93,0.00,CLR,,0.00,WeatherDisplay:10.37,2013-08-20 10:23:00,
2013-08-20 05:28:00,67.7,65.6,29.98,North,7,0.0,0.0,93,0.00,CLR,,0.00,WeatherDisplay:10.37,2013-08-20 10:28:00,
2013-08-20 05:33:00,67.7,65.6,29.98,North,7,0.0,0.0,93,0.00,CLR,,0.00,WeatherDisplay:10.37,2013-08-20 10:33:00,
2013-08-20 05:38:00,67.7,65.6,29.98,North,7,0.0,0.0,93,0.00,CLR,,0.00,WeatherDisplay:10.37,2013-08-20 10:38:00,
2013-08-20 05:43:00,67.7,65.6,29.98,North,7,0.0,0.0,93,0.00,CLR,,0.00,WeatherDisplay:10.37,2013-08-20 10:43:00,
2013-08-20 05:48:00,67.7,65.6,29.98,North,7,0.0,0.0,93,0.00,CLR,,0.00,WeatherDisplay:10.37,2013-08-20 10:48:00,
2013-08-20 05:53:00,67.7,65.6,29.98,North,8,0.0,0.0,93,0.00,CLR,,0.00,WeatherDisplay:10.37,2013-08-20 10:53:00,
2013-08-20 05:58:00,67.7,65.6,29.98,North,8,0.0,0.0,93,0.00,CLR,,0.00,WeatherDisplay:10.37,2013-08-20 10:58:00,
2013-08-20 06:03:00,67.7,65.6,29.99,North,8,0.0,0.0,93,0.00,CLR,,0.00,WeatherDisplay:10.37,2013-08-20 11:03:00,
2013-08-20 06:08:00,67.7,65.6,29.99,North,8,0.0,0.0,93,0.00,CLR,,0.00,WeatherDisplay:10.37,2013-08-20 11:08:00,
2013-08-20 06:13:00,67.6,65.5,29.99,North,8,0.0,0.0,93,0.00,CLR,,0.00,WeatherDisplay:10.37,2013-08-20 11:13:00,
2013-08-20 06:18:00,67.5,65.4,29.99,North,8,0.0,0.0,93,0.00,CLR,,0.00,WeatherDisplay:10.37,2013-08-20 11:18:00,
2013-08-20 06:23:00,67.4,65.3,29.99,North,8,0.0,0.0,93,0.00,CLR,,0.00,WeatherDisplay:10.37,2013-08-20 11:23:00,
2013-08-20 06:28:00,67.3,65.2,29.99,North,8,0.0,0.0,93,0.00,CLR,,0.00,WeatherDisplay:10.37,2013-08-20 11:28:00,
2013-08-20 06:33:00,67.3,65.5,29.99,North,8,0.0,0.0,94,0.00,CLR,,0.00,WeatherDisplay:10.37,2013-08-20 11:33:00,
2013-08-20 06:38:00,67.3,65.5,29.99,North,8,0.0,0.0,94,0.00,CLR,,0.00,WeatherDisplay:10.37,2013-08-20 11:38:00,
2013-08-20 06:43:00,67.3,65.2,30.00,North,8,0.0,0.0,93,0.00,CLR,,0.00,WeatherDisplay:10.37,2013-08-20 11:43:00,
2013-08-20 06:48:00,67.3,65.5,30.00,North,8,0.0,0.0,94,0.00,CLR,,0.00,WeatherDisplay:10.37,2013-08-20 11:48:00,
2013-08-20 06:53:00,67.4,65.6,30.00,North,9,0.1,0.0,94,0.00,CLR,,0.00,WeatherDisplay:10.37,2013-08-20 11:53:00,
2013-08-20 06:58:00,67.6,65.5,30.00,NNE,17,0.0,1.2,93,0.00,CLR,,0.00,WeatherDisplay:10.37,2013-08-20 11:58:00,
2013-08-20 07:03:00,67.6,65.5,30.00,NNE,15,0.0,0.0,93,0.00,CLR,,0.00,WeatherDisplay:10.37,2013-08-20 12:03:00,
2013-08-20 07:08:00,67.6,65.5,30.00,NNE,15,0.0,0.0,93,0.00,CLR,,0.00,WeatherDisplay:10.37,2013-08-20 12:08:00,
2013-08-20 07:13:00,67.6,65.5,30.00,NNE,15,0.0,0.0,93,0.00,CLR,,0.00,WeatherDisplay:10.37,2013-08-20 12:13:00,
2013-08-20 07:18:00,67.7,65.6,30.01,NNE,15,0.0,0.0,93,0.00,CLR,,0.00,WeatherDisplay:10.37,2013-08-20 12:18:00,
2013-08-20 07:23:00,67.8,65.7,30.01,NNE,15,0.0,0.0,93,0.00,CLR,,0.00,WeatherDisplay:10.37,2013-08-20 12:23:00,
2013-08-20 07:28:00,67.9,65.5,30.01,NNE,17,0.0,0.0,92,0.00,CLR,,0.00,WeatherDisplay:10.37,2013-08-20 12:28:00,
2013-08-20 07:33:00,68.1,65.7,30.01,NNE,16,0.0,0.0,92,0.00,CLR,,0.00,WeatherDisplay:10.37,2013-08-20 12:33:00,
2013-08-20 07:38:00,68.3,65.9,30.01,WNW,294,0.1,1.2,92,0.00,CLR,,0.00,WeatherDisplay:10.37,2013-08-20 12:38:00,
2013-08-20 07:43:00,68.5,66.1,30.01,WNW,294,0.1,1.2,92,0.00,CLR,,0.00,WeatherDisplay:10.37,2013-08-20 12:43:00,
2013-08-20 07:48:00,68.8,66.1,30.02,SE,127,0.0,1.2,91,0.00,CLR,,0.00,WeatherDisplay:10.37,2013-08-20 12:48:00,
2013-08-20 07:53:00,69.1,66.0,30.02,WSW,238,0.1,1.2,90,0.00,CLR,,0.00,WeatherDisplay:10.37,2013-08-20 12:53:00,
2013-08-20 07:58:00,69.3,66.2,30.02,SSW,212,0.0,0.0,90,0.00,CLR,,0.00,WeatherDisplay:10.37,2013-08-20 12:58:00,
2013-08-20 08:03:00,69.6,66.5,30.02,SE,140,0.0,1.2,90,0.00,CLR,,0.00,WeatherDisplay:10.37,2013-08-20 13:03:00,
2013-08-20 08:08:00,69.8,66.4,30.02,South,179,0.0,0.0,89,0.00,CLR,,0.00,WeatherDisplay:10.37,2013-08-20 13:08:00,
2013-08-20 08:13:00,70.1,66.7,30.02,South,181,0.0,0.0,89,0.00,CLR,,0.00,WeatherDisplay:10.37,2013-08-20 13:13:00,
2013-08-20 08:18:00,70.3,66.6,30.02,WNW,301,0.4,1.2,88,0.00,CLR,,0.00,WeatherDisplay:10.37,2013-08-20 13:18:00,
2013-08-20 08:23:00,70.6,66.9,30.02,WNW,303,0.2,0.0,88,0.00,CLR,,0.00,WeatherDisplay:10.37,2013-08-20 13:23:00,
2013-08-20 08:28:00,70.9,67.2,30.02,SSW,204,0.0,0.0,88,0.00,CLR,,0.00,WeatherDisplay:10.37,2013-08-20 13:28:00,
2013-08-20 08:33:00,71.1,67.0,30.02,SSW,206,0.3,1.2,87,0.00,CLR,,0.00,WeatherDisplay:10.37,2013-08-20 13:33:00,
2013-08-20 08:38:00,71.4,67.3,30.02,SW,226,0.1,1.2,87,0.00,CLR,,0.00,WeatherDisplay:10.37,2013-08-20 13:38:00,
2013-08-20 08:43:00,71.8,67.4,30.02,SE,130,0.0,0.0,86,0.00,CLR,,0.00,WeatherDisplay:10.37,2013-08-20 13:43:00,
2013-08-20 08:48:00,72.1,67.7,30.02,SW,228,0.0,0.0,86,0.00,CLR,,0.00,WeatherDisplay:10.37,2013-08-20 13:48:00,
2013-08-20 08:53:00,72.4,67.6,30.02,SE,129,0.2,2.3,85,0.00,CLR,,0.00,WeatherDisplay:10.37,2013-08-20 13:53:00,
2013-08-20 08:58:00,72.8,68.0,30.02,SSE,168,0.1,1.0,85,0.00,CLR,,0.00,WeatherDisplay:10.37,2013-08-20 13:58:00,
2013-08-20 09:03:00,73.1,68.0,30.02,SW,236,0.0,0.0,84,0.00,CLR,,0.00,WeatherDisplay:10.37,2013-08-20 14:03:00,
2013-08-20 09:08:00,73.5,68.0,30.02,SW,223,0.2,1.2,83,0.00,CLR,,0.00,WeatherDisplay:10.37,2013-08-20 14:08:00,
2013-08-20 09:13:00,73.8,68.3,30.03,SW,224,0.8,1.2,83,0.00,CLR,,0.00,WeatherDisplay:10.37,2013-08-20 14:13:00,
2013-08-20 09:18:00,74.1,68.3,30.03,SSE,162,0.0,1.2,82,0.00,CLR,,0.00,WeatherDisplay:10.37,2013-08-20 14:18:00,
2013-08-20 09:23:00,74.5,68.3,30.02,SSW,196,0.8,1.2,81,0.00,CLR,,0.00,WeatherDisplay:10.37,2013-08-20 14:23:00,
2013-08-20 09:28:00,74.9,68.3,30.02,SSE,160,0.9,2.3,80,0.00,CLR,,0.00,WeatherDisplay:10.37,2013-08-20 14:28:00,
2013-08-20 09:33:00,75.2,67.9,30.02,SSW,213,0.3,2.0,78,0.00,CLR,,0.00,WeatherDisplay:10.37,2013-08-20 14:33:00,
2013-08-20 09:38:00,75.6,68.6,30.02,SSE,159,0.6,2.3,79,0.00,CLR,,0.00,WeatherDisplay:10.37,2013-08-20 14:38:00,
2013-08-20 09:43:00,75.9,68.2,30.02,SW,220,0.0,2.3,77,0.00,CLR,,0.00,WeatherDisplay:10.37,2013-08-20 14:43:00,
2013-08-20 09:48:00,76.3,68.2,30.02,West,263,1.2,2.3,76,0.00,CLR,,0.00,WeatherDisplay:10.37,2013-08-20 14:48:00,
2013-08-20 09:53:00,76.6,68.8,30.02,South,184,0.1,1.2,77,0.00,CLR,,0.00,WeatherDisplay:10.37,2013-08-20 14:53:00,
2013-08-20 09:58:00,77.0,68.5,30.02,SW,231,0.7,1.2,75,0.00,CLR,,0.00,WeatherDisplay:10.37,2013-08-20 14:58:00,
2013-08-20 10:03:00,77.2,68.7,30.02,SE,124,0.9,2.3,75,0.00,CLR,,0.00,WeatherDisplay:10.37,2013-08-20 15:03:00,
2013-08-20 10:08:00,77.5,68.6,30.02,SSW,211,1.1,4.0,74,0.00,CLR,,0.00,WeatherDisplay:10.37,2013-08-20 15:08:00,
2013-08-20 10:13:00,77.7,68.0,30.02,ESE,107,0.8,3.5,72,0.00,CLR,,0.00,WeatherDisplay:10.37,2013-08-20 15:13:00,
2013-08-20 10:18:00,78.2,68.4,30.02,SSW,198,1.5,2.3,72,0.00,CLR,,0.00,WeatherDisplay:10.37,2013-08-20 15:18:00,
2013-08-20 10:23:00,78.6,68.8,30.02,SSW,212,0.7,2.3,72,0.00,CLR,,0.00,WeatherDisplay:10.37,2013-08-20 15:23:00,
2013-08-20 10:28:00,79.1,68.5,30.02,SW,224,1.1,0.0,70,0.00,CLR,,0.00,WeatherDisplay:10.37,2013-08-20 15:28:00,
2013-08-20 10:33:00,79.2,69.0,30.02,West,273,0.3,2.3,71,0.00,CLR,,0.00,WeatherDisplay:10.37,2013-08-20 15:33:00,
2013-08-20 10:38:00,79.5,68.4,30.02,WSW,257,1.1,3.5,69,0.00,CLR,,0.00,WeatherDisplay:10.37,2013-08-20 15:38:00,
2013-08-20 10:43:00,79.7,68.2,30.02,WSW,257,1.1,2.3,68,0.00,CLR,,0.00,WeatherDisplay:10.37,2013-08-20 15:43:00,
2013-08-20 10:48:00,80.1,68.6,30.02,SW,221,1.4,2.3,68,0.00,CLR,,0.00,WeatherDisplay:10.37,2013-08-20 15:48:00,
2013-08-20 10:53:00,80.5,69.4,30.02,West,264,0.0,1.2,69,0.00,CLR,,0.00,WeatherDisplay:10.37,2013-08-20 15:53:00,
2013-08-20 10:58:00,80.8,67.9,30.02,SW,229,1.4,4.6,65,0.00,CLR,,0.00,WeatherDisplay:10.37,2013-08-20 15:58:00,
2013-08-20 11:03:00,81.0,67.7,30.02,SSE,165,2.4,3.5,64,0.00,CLR,,0.00,WeatherDisplay:10.37,2013-08-20 16:03:00,
2013-08-20 11:08:00,81.4,68.5,30.02,SSE,154,0.6,3.5,65,0.00,CLR,,0.00,WeatherDisplay:10.37,2013-08-20 16:08:00,
2013-08-20 11:13:00,81.8,68.0,30.02,SE,134,1.2,2.3,63,0.00,CLR,,0.00,WeatherDisplay:10.37,2013-08-20 16:13:00,
2013-08-20 11:18:00,82.1,66.8,30.02,West,266,1.5,2.3,60,0.00,CLR,,0.00,WeatherDisplay:10.37,2013-08-20 16:18:00,
2013-08-20 11:23:00,82.4,68.5,30.02,WSW,252,1.5,2.3,63,0.00,CLR,,0.00,WeatherDisplay:10.37,2013-08-20 16:23:00,
2013-08-20 11:28:00,82.7,67.4,30.01,SSW,202,1.7,3.0,60,0.00,CLR,,0.00,WeatherDisplay:10.37,2013-08-20 16:28:00,
2013-08-20 11:33:00,82.9,68.1,30.01,West,264,1.8,3.5,61,0.00,CLR,,0.00,WeatherDisplay:10.37,2013-08-20 16:33:00,
2013-08-20 11:38:00,83.0,67.2,30.01,SSE,167,3.3,5.8,59,0.00,CLR,,0.00,WeatherDisplay:10.37,2013-08-20 16:38:00,
2013-08-20 11:43:00,83.2,66.9,30.01,SSW,201,1.5,3.0,58,0.00,CLR,,0.00,WeatherDisplay:10.37,2013-08-20 16:43:00,
2013-08-20 11:48:00,83.3,67.5,30.02,SSW,212,1.5,3.5,59,0.00,CLR,,0.00,WeatherDisplay:10.37,2013-08-20 16:48:00,
2013-08-20 11:53:00,83.5,67.2,30.01,SSE,150,2.1,3.5,58,0.00,CLR,,0.00,WeatherDisplay:10.37,2013-08-20 16:53:00,
2013-08-20 11:58:00,83.6,67.8,30.01,SSE,148,0.6,3.5,59,0.00,CLR,,0.00,WeatherDisplay:10.37,2013-08-20 16:58:00,
2013-08-20 12:03:00,84.1,67.7,30.01,SW,220,2.4,4.6,58,0.00,CLR,,0.00,WeatherDisplay:10.37,2013-08-20 17:03:00,
2013-08-20 12:08:00,84.1,67.7,30.01,East,97,2.4,5.8,58,0.00,CLR,,0.00,WeatherDisplay:10.37,2013-08-20 17:08:00,
2013-08-20 12:13:00,84.2,67.8,30.01,SW,230,1.6,3.5,58,0.00,CLR,,0.00,WeatherDisplay:10.37,2013-08-20 17:13:00,
2013-08-20 12:18:00,84.3,68.4,30.01,SW,224,1.1,3.0,59,0.00,CLR,,0.00,WeatherDisplay:10.37,2013-08-20 17:18:00,
2013-08-20 12:23:00,84.7,68.3,30.01,ESE,113,0.7,2.3,58,0.00,CLR,,0.00,WeatherDisplay:10.37,2013-08-20 17:23:00,
2013-08-20 12:28:00,85.0,68.6,30.01,SSW,196,1.4,3.5,58,0.00,CLR,,0.00,WeatherDisplay:10.37,2013-08-20 17:28:00,
2013-08-20 12:33:00,85.3,67.3,30.00,WNW,294,0.8,3.5,55,0.00,CLR,,0.00,WeatherDisplay:10.37,2013-08-20 17:33:00,
2013-08-20 12:38:00,85.4,67.4,30.00,West,262,1.2,3.5,55,0.00,CLR,,0.00,WeatherDisplay:10.37,2013-08-20 17:38:00,
2013-08-20 12:43:00,85.6,68.1,30.00,WSW,241,1.8,3.5,56,0.00,CLR,,0.00,WeatherDisplay:10.37,2013-08-20 17:43:00,
2013-08-20 12:48:00,85.9,68.9,30.00,SSE,165,0.2,1.2,57,0.00,CLR,,0.00,WeatherDisplay:10.37,2013-08-20 17:48:00,
2013-08-20 12:53:00,86.2,68.1,30.00,SSW,207,1.3,3.0,55,0.00,CLR,,0.00,WeatherDisplay:10.37,2013-08-20 17:53:00,
2013-08-20 12:58:00,86.5,67.9,29.99,SSW,192,0.6,2.3,54,0.00,CLR,,0.00,WeatherDisplay:10.37,2013-08-20 17:58:00,
2013-08-20 13:03:00,86.6,69.0,29.99,WSW,255,0.3,1.2,56,0.00,CLR,,0.00,WeatherDisplay:10.37,2013-08-20 18:03:00,
2013-08-20 13:09:00,86.8,68.7,29.99,West,276,0.7,2.3,55,0.00,CLR,,0.00,WeatherDisplay:10.37,2013-08-20 18:09:00,
2013-08-20 13:14:00,86.9,68.8,29.99,South,184,1.4,2.3,55,0.00,CLR,,0.00,WeatherDisplay:10.37,2013-08-20 18:14:00,
2013-08-20 13:19:00,86.8,68.2,29.99,South,178,1.3,2.3,54,0.00,CLR,,0.00,WeatherDisplay:10.37,2013-08-20 18:19:00,
2013-08-20 13:24:00,87.0,68.3,29.99,SE,146,0.2,1.2,54,0.00,CLR,,0.00,WeatherDisplay:10.37,2013-08-20 18:24:00,
2013-08-20 13:29:00,87.1,69.0,29.99,SSE,167,2.0,3.5,55,0.00,CLR,,0.00,WeatherDisplay:10.37,2013-08-20 18:29:00,
2013-08-20 13:34:00,87.1,69.5,29.98,ESE,114,0.9,2.0,56,0.00,CLR,,0.00,WeatherDisplay:10.37,2013-08-20 18:34:00,
2013-08-20 13:39:00,87.2,68.0,29.98,SW,215,1.4,2.3,53,0.00,CLR,,0.00,WeatherDisplay:10.37,2013-08-20 18:39:00,
2013-08-20 13:44:00,87.3,69.2,29.98,South,170,1.2,3.5,55,0.00,CLR,,0.00,WeatherDisplay:10.37,2013-08-20 18:44:00,
2013-08-20 13:49:00,87.2,68.5,29.98,SW,224,0.9,3.5,54,0.00,CLR,,0.00,WeatherDisplay:10.37,2013-08-20 18:49:00,
2013-08-20 13:54:00,87.6,70.0,29.98,NW,319,1.1,3.5,56,0.00,CLR,,0.00,WeatherDisplay:10.37,2013-08-20 18:54:00,
2013-08-20 13:59:00,87.8,70.1,29.98,WNW,290,1.8,2.3,56,0.00,CLR,,0.00,WeatherDisplay:10.37,2013-08-20 18:59:00,
2013-08-20 14:04:00,87.7,68.4,29.98,East,98,1.7,2.3,53,0.00,CLR,,0.00,WeatherDisplay:10.37,2013-08-20 19:04:00,
2013-08-20 14:09:00,87.5,70.4,29.98,SSE,150,0.1,2.3,57,0.00,CLR,,0.00,WeatherDisplay:10.37,2013-08-20 19:09:00,
2013-08-20 14:14:00,87.9,69.7,29.98,SW,234,1.5,2.3,55,0.00,CLR,,0.00,WeatherDisplay:10.37,2013-08-20 19:14:00,
2013-08-20 14:19:00,88.3,70.6,29.98,NNE,20,0.7,2.3,56,0.00,CLR,,0.00,WeatherDisplay:10.37,2013-08-20 19:19:00,
2013-08-20 14:24:00,88.3,69.5,29.97,SE,129,1.7,4.0,54,0.00,CLR,,0.00,WeatherDisplay:10.37,2013-08-20 19:24:00,
2013-08-20 14:29:00,88.1,68.8,29.98,ESE,112,1.4,1.4,53,0.00,CLR,,0.00,WeatherDisplay:10.37,2013-08-20 19:29:00,
2013-08-20 14:34:00,88.1,68.8,29.97,SE,129,0.9,3.5,53,0.00,CLR,,0.00,WeatherDisplay:10.37,2013-08-20 19:34:00,
2013-08-20 14:39:00,88.2,70.0,29.97,SSW,210,0.8,3.5,55,0.00,CLR,,0.00,WeatherDisplay:10.37,2013-08-20 19:39:00,
2013-08-20 14:44:00,88.3,69.0,29.97,SE,129,0.8,3.5,53,0.00,CLR,,0.00,WeatherDisplay:10.37,2013-08-20 19:44:00,
2013-08-20 14:49:00,88.5,70.3,29.97,SE,138,0.2,1.2,55,0.00,CLR,,0.00,WeatherDisplay:10.37,2013-08-20 19:49:00,
2013-08-20 14:54:00,88.7,69.9,29.97,SSE,162,0.2,2.3,54,0.00,CLR,,0.00,WeatherDisplay:10.37,2013-08-20 19:54:00,
2013-08-20 14:59:00,88.9,69.0,29.97,South,185,0.4,3.5,52,0.00,CLR,,0.00,WeatherDisplay:10.37,2013-08-20 19:59:00,
2013-08-20 15:04:00,88.9,69.6,29.97,SE,124,1.1,1.2,53,0.00,CLR,,0.00,WeatherDisplay:10.37,2013-08-20 20:04:00,
2013-08-20 15:09:00,88.9,70.1,29.96,SSE,149,0.8,2.3,54,0.00,CLR,,0.00,WeatherDisplay:10.37,2013-08-20 20:09:00,
2013-08-20 15:14:00,89.0,70.2,29.96,WSW,258,0.9,2.3,54,0.00,CLR,,0.00,WeatherDisplay:10.37,2013-08-20 20:14:00,
2013-08-20 15:19:00,88.8,70.0,29.96,SE,135,0.9,3.5,54,0.00,CLR,,0.00,WeatherDisplay:10.37,2013-08-20 20:19:00,
2013-08-20 15:24:00,88.8,70.0,29.96,SSE,157,0.2,2.3,54,0.00,CLR,,0.00,WeatherDisplay:10.37,2013-08-20 20:24:00,
2013-08-20 15:29:00,89.0,69.1,29.96,ESE,120,1.0,1.2,52,0.00,CLR,,0.00,WeatherDisplay:10.37,2013-08-20 20:29:00,
2013-08-20 15:34:00,89.0,69.6,29.96,South,169,0.3,1.2,53,0.00,CLR,,0.00,WeatherDisplay:10.37,2013-08-20 20:34:00,
2013-08-20 15:39:00,89.0,68.5,29.96,East,84,1.0,2.3,51,0.00,CLR,,0.00,WeatherDisplay:10.37,2013-08-20 20:39:00,
2013-08-20 15:44:00,89.1,69.2,29.96,ESE,123,0.3,2.3,52,0.00,CLR,,0.00,WeatherDisplay:10.37,2013-08-20 20:44:00,
2013-08-20 15:49:00,89.3,69.4,29.96,WNW,287,0.6,4.0,52,0.00,CLR,,0.00,WeatherDisplay:10.37,2013-08-20 20:49:00,
2013-08-20 15:54:00,89.2,68.7,29.96,SE,142,1.5,4.6,51,0.00,CLR,,0.00,WeatherDisplay:10.37,2013-08-20 20:54:00,
2013-08-20 15:59:00,89.1,69.2,29.95,SW,223,1.6,3.5,52,0.00,CLR,,0.00,WeatherDisplay:10.37,2013-08-20 20:59:00,
2013-08-20 16:04:00,89.0,70.2,29.95,SSE,155,0.7,2.0,54,0.00,CLR,,0.00,WeatherDisplay:10.37,2013-08-20 21:04:00,
2013-08-20 16:09:00,89.2,68.7,29.95,South,169,1.4,3.0,51,0.00,CLR,,0.00,WeatherDisplay:10.37,2013-08-20 21:09:00,
2013-08-20 16:14:00,89.2,69.3,29.95,SSW,196,1.4,2.3,52,0.00,CLR,,0.00,WeatherDisplay:10.37,2013-08-20 21:14:00,
2013-08-20 16:19:00,89.4,69.5,29.95,ESE,107,0.7,1.2,52,0.00,CLR,,0.00,WeatherDisplay:10.37,2013-08-20 21:19:00,
2013-08-20 16:24:00,89.5,69.5,29.95,ENE,66,1.1,3.5,52,0.00,CLR,,0.00,WeatherDisplay:10.37,2013-08-20 21:24:00,
2013-08-20 16:29:00,89.4,68.9,29.95,SE,124,1.0,1.2,51,0.00,CLR,,0.00,WeatherDisplay:10.37,2013-08-20 21:29:00,
2013-08-20 16:34:00,89.5,69.0,29.95,SE,131,0.8,3.5,51,0.00,CLR,,0.00,WeatherDisplay:10.37,2013-08-20 21:34:00,
2013-08-20 16:39:00,89.6,70.2,29.95,SE,135,0.7,3.0,53,0.00,CLR,,0.00,WeatherDisplay:10.37,2013-08-20 21:39:00,
2013-08-20 16:44:00,89.7,69.7,29.94,WNW,289,1.7,2.3,52,0.00,CLR,,0.00,WeatherDisplay:10.37,2013-08-20 21:44:00,
2013-08-20 16:49:00,89.7,69.2,29.94,SSW,198,0.8,2.3,51,0.00,CLR,,0.00,WeatherDisplay:10.37,2013-08-20 21:49:00,
2013-08-20 16:54:00,89.9,69.3,29.94,SE,131,1.3,2.3,51,0.00,CLR,,0.00,WeatherDisplay:10.37,2013-08-20 21:54:00,
2013-08-20 16:59:00,89.9,68.8,29.94,SW,234,1.4,3.5,50,0.00,CLR,,0.00,WeatherDisplay:10.37,2013-08-20 21:59:00,
2013-08-20 17:04:00,89.9,68.2,29.94,ESE,114,0.9,2.3,49,0.00,CLR,,0.00,WeatherDisplay:10.37,2013-08-20 22:04:00,
2013-08-20 17:09:00,89.9,68.8,29.94,SSE,148,0.5,2.3,50,0.00,CLR,,0.00,WeatherDisplay:10.37,2013-08-20 22:09:00,
2013-08-20 17:14:00,89.9,68.8,29.94,SSW,206,2.3,2.3,50,0.00,CLR,,0.00,WeatherDisplay:10.37,2013-08-20 22:14:00,
2013-08-20 17:19:00,89.4,67.7,29.94,East,94,1.1,3.5,49,0.00,CLR,,0.00,WeatherDisplay:10.37,2013-08-20 22:19:00,
2013-08-20 17:24:00,89.5,69.0,29.94,SSW,204,1.0,1.0,51,0.00,CLR,,0.00,WeatherDisplay:10.37,2013-08-20 22:24:00,
2013-08-20 17:29:00,89.8,69.8,29.94,South,170,0.0,0.0,52,0.00,CLR,,0.00,WeatherDisplay:10.37,2013-08-20 22:29:00,
2013-08-20 17:34:00,89.8,68.7,29.94,SSE,150,1.0,3.5,50,0.00,CLR,,0.00,WeatherDisplay:10.37,2013-08-20 22:34:00,
2013-08-20 17:39:00,89.7,69.2,29.94,WNW,285,1.3,3.5,51,0.00,CLR,,0.00,WeatherDisplay:10.37,2013-08-20 22:39:00,
2013-08-20 17:44:00,89.7,68.6,29.94,SSE,155,0.4,1.2,50,0.00,CLR,,0.00,WeatherDisplay:10.37,2013-08-20 22:44:00,
2013-08-20 17:49:00,89.6,68.5,29.94,South,189,0.7,2.3,50,0.00,CLR,,0.00,WeatherDisplay:10.37,2013-08-20 22:49:00,
2013-08-20 17:54:00,89.9,69.3,29.94,SE,137,0.2,1.2,51,0.00,CLR,,0.00,WeatherDisplay:10.37,2013-08-20 22:54:00,
2013-08-20 17:59:00,90.0,68.9,29.94,WSW,257,0.9,2.3,50,0.00,CLR,,0.00,WeatherDisplay:10.37,2013-08-20 22:59:00,
2013-08-20 18:04:00,89.5,69.0,29.94,South,182,0.5,2.3,51,0.00,CLR,,0.00,WeatherDisplay:10.37,2013-08-20 23:04:00,
2013-08-20 18:09:00,89.2,68.1,29.94,East,98,0.8,2.3,50,0.00,CLR,,0.00,WeatherDisplay:10.37,2013-08-20 23:09:00,
2013-08-20 18:14:00,88.5,68.6,29.94,ESE,118,0.5,1.2,52,0.00,CLR,,0.00,WeatherDisplay:10.37,2013-08-20 23:14:00,
2013-08-20 18:19:00,88.1,68.8,29.94,SE,130,0.4,1.2,53,0.00,CLR,,0.00,WeatherDisplay:10.37,2013-08-20 23:19:00,
2013-08-20 18:24:00,87.9,69.2,29.94,SW,218,0.2,1.2,54,0.00,CLR,,0.00,WeatherDisplay:10.37,2013-08-20 23:24:00,
2013-08-20 18:29:00,87.6,68.4,29.94,WSW,244,0.2,1.2,53,0.00,CLR,,0.00,WeatherDisplay:10.37,2013-08-20 23:29:00,
2013-08-20 18:34:00,87.3,68.6,29.94,SE,127,0.8,3.5,54,0.00,CLR,,0.00,WeatherDisplay:10.37,2013-08-20 23:34:00,
2013-08-20 18:39:00,87.0,68.9,29.94,ESE,113,0.4,1.2,55,0.00,CLR,,0.00,WeatherDisplay:10.37,2013-08-20 23:39:00,
2013-08-20 18:44:00,86.8,68.7,29.94,SE,125,0.1,1.2,55,0.00,CLR,,0.00,WeatherDisplay:10.37,2013-08-20 23:44:00,
2013-08-20 18:49:00,86.5,68.4,29.94,South,177,0.2,1.2,55,0.00,CLR,,0.00,WeatherDisplay:10.37,2013-08-20 23:49:00,
2013-08-20 18:54:00,86.2,68.1,29.94,SSW,194,0.1,2.3,55,0.00,CLR,,0.00,WeatherDisplay:10.37,2013-08-20 23:54:00,
2013-08-20 18:59:00,86.0,68.5,29.94,WSW,250,0.1,1.2,56,0.00,CLR,,0.00,WeatherDisplay:10.37,2013-08-20 23:59:00,
2013-08-20 19:04:00,85.8,68.3,29.94,SSE,154,0.0,0.0,56,0.00,CLR,,0.00,WeatherDisplay:10.37,2013-08-21 00:04:00,
2013-08-20 19:09:00,85.5,68.0,29.94,SE,134,0.0,1.2,56,0.00,CLR,,0.00,WeatherDisplay:10.37,2013-08-21 00:09:00,
2013-08-20 19:14:00,85.2,68.2,29.94,NW,304,0.0,0.0,57,0.00,CLR,,0.00,WeatherDisplay:10.37,2013-08-21 00:14:00,
2013-08-20 19:19:00,84.9,68.0,29.94,SE,140,0.0,0.0,57,0.00,CLR,,0.00,WeatherDisplay:10.37,2013-08-21 00:19:00,
2013-08-20 19:24:00,84.6,67.7,29.94,SE,124,0.2,1.2,57,0.00,CLR,,0.00,WeatherDisplay:10.37,2013-08-21 00:24:00,
2013-08-20 19:29:00,84.3,67.9,29.94,ESE,115,0.6,1.2,58,0.00,CLR,,0.00,WeatherDisplay:10.37,2013-08-21 00:29:00,
2013-08-20 19:34:00,84.1,68.7,29.94,ESE,116,0.0,1.2,60,0.00,CLR,,0.00,WeatherDisplay:10.37,2013-08-21 00:34:00,
2013-08-20 19:39:00,83.8,68.4,29.94,ESE,116,0.0,1.2,60,0.00,CLR,,0.00,WeatherDisplay:10.37,2013-08-21 00:39:00,
2013-08-20 19:45:00,83.6,68.7,29.94,SE,132,0.4,1.2,61,0.00,CLR,,0.00,WeatherDisplay:10.37,2013-08-21 00:45:00,
2013-08-20 19:50:00,83.3,68.4,29.94,SE,143,0.0,1.2,61,0.00,CLR,,0.00,WeatherDisplay:10.37,2013-08-21 00:50:00,
2013-08-20 19:55:00,83.1,68.7,29.94,ESE,108,0.1,1.2,62,0.00,CLR,,0.00,WeatherDisplay:10.37,2013-08-21 00:55:00,
2013-08-20 20:00:00,82.9,68.5,29.94,SE,136,0.0,1.2,62,0.00,CLR,,0.00,WeatherDisplay:10.37,2013-08-21 01:00:00,
2013-08-20 20:05:00,82.8,68.4,29.94,ESE,119,0.2,2.3,62,0.00,CLR,,0.00,WeatherDisplay:10.37,2013-08-21 01:05:00,
2013-08-20 20:10:00,82.6,68.7,29.94,ESE,117,0.3,1.2,63,0.00,CLR,,0.00,WeatherDisplay:10.37,2013-08-21 01:10:00,
2013-08-20 20:15:00,82.3,68.4,29.94,SE,143,0.0,1.2,63,0.00,CLR,,0.00,WeatherDisplay:10.37,2013-08-21 01:15:00,
2013-08-20 20:19:00,82.0,68.6,29.94,ESE,117,0.0,1.2,64,0.00,CLR,,0.00,WeatherDisplay:10.37,2013-08-21 01:19:00,
2013-08-20 20:24:00,81.7,68.8,29.94,ESE,117,0.0,0.0,65,0.00,CLR,,0.00,WeatherDisplay:10.37,2013-08-21 01:24:00,
2013-08-20 20:29:00,81.4,68.5,29.94,ESE,117,0.1,1.2,65,0.00,CLR,,0.00,WeatherDisplay:10.37,2013-08-21 01:29:00,
2013-08-20 20:34:00,81.0,68.6,29.94,ESE,117,0.1,1.2,66,0.00,CLR,,0.00,WeatherDisplay:10.37,2013-08-21 01:34:00,
2013-08-20 20:39:00,80.6,68.6,29.94,ESE,120,0.0,0.0,67,0.00,CLR,,0.00,WeatherDisplay:10.37,2013-08-21 01:39:00,
2013-08-20 20:44:00,80.3,68.8,29.95,ESE,120,0.0,1.2,68,0.00,CLR,,0.00,WeatherDisplay:10.37,2013-08-21 01:44:00,
2013-08-20 20:49:00,80.1,69.0,29.95,ESE,120,0.0,0.0,69,0.00,CLR,,0.00,WeatherDisplay:10.37,2013-08-21 01:49:00,
2013-08-20 20:54:00,79.8,68.7,29.95,ESE,121,0.0,0.0,69,0.00,CLR,,0.00,WeatherDisplay:10.37,2013-08-21 01:54:00,
2013-08-20 20:59:00,79.6,69.0,29.95,ESE,121,0.0,0.0,70,0.00,CLR,,0.00,WeatherDisplay:10.37,2013-08-21 01:59:00,
2013-08-20 21:04:00,79.3,69.1,29.95,ESE,121,0.0,0.0,71,0.00,CLR,,0.00,WeatherDisplay:10.37,2013-08-21 02:04:00,
2013-08-20 21:09:00,79.0,68.8,29.96,ESE,120,0.0,0.0,71,0.00,CLR,,0.00,WeatherDisplay:10.37,2013-08-21 02:09:00,
2013-08-20 21:14:00,78.8,69.0,29.96,ESE,121,0.0,0.0,72,0.00,CLR,,0.00,WeatherDisplay:10.37,2013-08-21 02:14:00,
2013-08-20 21:19:00,78.6,68.8,29.96,ESE,121,0.0,0.0,72,0.00,CLR,,0.00,WeatherDisplay:10.37,2013-08-21 02:19:00,
2013-08-20 21:24:00,78.3,68.9,29.96,ESE,121,0.0,0.0,73,0.00,CLR,,0.00,WeatherDisplay:10.37,2013-08-21 02:24:00,
2013-08-20 21:29:00,78.1,69.1,29.96,ESE,120,0.0,0.0,74,0.00,CLR,,0.00,WeatherDisplay:10.37,2013-08-21 02:29:00,
2013-08-20 21:34:00,77.8,68.8,29.97,ESE,121,0.0,0.0,74,0.00,CLR,,0.00,WeatherDisplay:10.37,2013-08-21 02:34:00,
2013-08-20 21:39:00,77.6,69.0,29.97,ESE,121,0.0,0.0,75,0.00,CLR,,0.00,WeatherDisplay:10.37,2013-08-21 02:39:00,
2013-08-20 21:44:00,77.5,68.9,29.97,ESE,121,0.0,0.0,75,0.00,CLR,,0.00,WeatherDisplay:10.37,2013-08-21 02:44:00,
2013-08-20 21:49:00,77.3,68.8,29.97,ESE,121,0.0,0.0,75,0.00,CLR,,0.00,WeatherDisplay:10.37,2013-08-21 02:49:00,
2013-08-20 21:54:00,77.2,69.0,29.98,ESE,121,0.0,0.0,76,0.00,CLR,,0.00,WeatherDisplay:10.37,2013-08-21 02:54:00,
2013-08-20 21:59:00,77.1,68.9,29.98,ESE,121,0.0,0.0,76,0.00,CLR,,0.00,WeatherDisplay:10.37,2013-08-21 02:59:00,
2013-08-20 22:04:00,77.1,68.9,29.98,ESE,122,0.2,1.2,76,0.00,CLR,,0.00,WeatherDisplay:10.37,2013-08-21 03:04:00,
2013-08-20 22:09:00,77.1,68.9,29.98,SSE,157,0.0,0.0,76,0.00,CLR,,0.00,WeatherDisplay:10.37,2013-08-21 03:09:00,
2013-08-20 22:14:00,76.9,68.8,29.98,SSE,157,0.0,0.0,76,0.00,CLR,,0.00,WeatherDisplay:10.37,2013-08-21 03:14:00,
2013-08-20 22:19:00,76.7,68.9,29.98,SSE,157,0.0,0.0,77,0.00,CLR,,0.00,WeatherDisplay:10.37,2013-08-21 03:19:00,
2013-08-20 22:24:00,76.5,68.7,29.99,SSE,157,0.0,0.0,77,0.00,CLR,,0.00,WeatherDisplay:10.37,2013-08-21 03:24:00,
2013-08-20 22:29:00,76.3,68.9,29.99,SSE,157,0.0,0.0,78,0.00,CLR,,0.00,WeatherDisplay:10.37,2013-08-21 03:29:00,
2013-08-20 22:34:00,75.9,68.5,29.99,SSE,157,0.0,0.0,78,0.00,CLR,,0.00,WeatherDisplay:10.37,2013-08-21 03:34:00,
2013-08-20 22:39:00,75.7,68.7,29.99,SSE,157,0.0,0.0,79,0.00,CLR,,0.00,WeatherDisplay:10.37,2013-08-21 03:39:00,
2013-08-20 22:44:00,75.5,68.5,29.99,SSE,157,0.0,0.0,79,0.00,CLR,,0.00,WeatherDisplay:10.37,2013-08-21 03:44:00,
2013-08-20 22:49:00,75.3,68.7,29.99,SSE,157,0.0,0.0,80,0.00,CLR,,0.00,WeatherDisplay:10.37,2013-08-21 03:49:00,
2013-08-20 22:54:00,75.1,68.5,29.99,SSE,157,0.0,0.0,80,0.00,CLR,,0.00,WeatherDisplay:10.37,2013-08-21 03:54:00,
2013-08-20 22:59:00,75.0,68.4,29.99,SSE,158,0.0,0.0,80,0.00,CLR,,0.00,WeatherDisplay:10.37,2013-08-21 03:59:00,
2013-08-20 23:01:00,75.0,68.4,29.99,SSE,158,0.0,0.0,80,0.00,CLR,,0.00,WeatherDisplay:10.37,2013-08-21 04:01:00,
2013-08-20 23:06:00,74.8,68.2,29.99,SSE,158,0.0,0.0,80,0.00,CLR,,0.00,WeatherDisplay:10.37,2013-08-21 04:06:00,
2013-08-20 23:11:00,74.6,68.4,29.99,SSE,157,0.0,0.0,81,0.00,CLR,,0.00,WeatherDisplay:10.37,2013-08-21 04:11:00,
2013-08-20 23:16:00,74.4,67.8,29.99,SSE,157,0.0,0.0,80,0.00,CLR,,0.00,WeatherDisplay:10.37,2013-08-21 04:16:00,
2013-08-20 23:21:00,74.4,68.2,29.99,SSE,157,0.0,0.0,81,0.00,CLR,,0.00,WeatherDisplay:10.37,2013-08-21 04:21:00,
2013-08-20 23:26:00,74.3,68.1,29.99,ESE,122,0.0,0.0,81,0.00,CLR,,0.00,WeatherDisplay:10.37,2013-08-21 04:26:00,
2013-08-20 23:31:00,74.3,68.1,29.99,ESE,122,0.0,0.0,81,0.00,CLR,,0.00,WeatherDisplay:10.37,2013-08-21 04:31:00,
2013-08-20 23:36:00,74.3,68.1,29.99,ESE,122,0.0,0.0,81,0.00,CLR,,0.00,WeatherDisplay:10.37,2013-08-21 04:36:00,
2013-08-20 23:41:00,74.1,67.9,29.99,ESE,122,0.0,0.0,81,0.00,CLR,,0.00,WeatherDisplay:10.37,2013-08-21 04:41:00,
2013-08-20 23:46:00,73.9,67.7,29.99,ESE,122,0.0,0.0,81,0.00,CLR,,0.00,WeatherDisplay:10.37,2013-08-21 04:46:00,
2013-08-20 23:51:00,73.7,67.5,29.99,ESE,123,0.0,0.0,81,0.00,CLR,,0.00,WeatherDisplay:10.37,2013-08-21 04:51:00,
2013-08-20 23:56:00,73.5,67.7,29.99,ESE,123,0.0,0.0,82,0.00,CLR,,0.00,WeatherDisplay:10.37,2013-08-21 04:56:00,